LMRST-SAT

Satellite information

Favourite Embed

Satellite Type and Status

PAYLOADIN ORBIT

Key statistics

Satellite LMRST-SAT at a glance.

Uptime

3720

Days in orbit

Revolutions

≈ 14.9

Per day

Orbit

LEO

Low Earth Orbit

Inclination

64.8

Latest

Satellite identification and parameters

Extended collection of information and parameters for LMRST-SAT.

Object identification

Identified? True

Debris? False

Object name: LMRST-SAT

International designator: 2015-058H

Object number (NORAD): 40971

Object ID (CCSDS): 40971

Country: UNITED STATES OF AMERICA (US)

Current information (Y/N): Y

RCS size: SMALL

Orbital parameters

Period: 96.688 minutes

Inclination: 64.7754 deg

SMA: 6978.181 km

Apoapsis: 695.826 km

Periapsis: 504.266 km

RAAN: 130.9998 deg

Eccentricy: 0.01372564

Argument of periapsis: 131.4473 deg

Mean anomaly: 229.8525 deg

Mean motion: 14.8932475 rev/day

Mean motion (dot): 0.0000571 rev/day2

B* drag term: 0.00051775393 1/REarth

Two-line elements (TLE)

Creation date: Dec. 14, 2025, 3:07 a.m.

Reference frame: TEME

Reference center: EARTH

Epoch: Dec. 13, 2025, 3:47 p.m. UTC

TLE line 0: 0 LMRST-SAT

TLE line 1: 1 40971U 15058H 25347.65794884 .00005710 00000-0 51775-3 0 9993

TLE line 2: 2 40971 64.7754 130.9998 0137256 131.4473 229.8525 14.89324750 85911

Live tracking on map

Real-time ground track for satellite LMRST-SAT.

In-orbit conjunctions

There are no conjunctions computed for LMRST-SAT, at the moment. Check back to stay up to date, as we update our databases every day.

Go to all conjunctions

Associated space launch

Classified payload for the U.S. National Reconnaissance Office.

LMRST-SAT was lifted into orbit during the mission ‘Atlas V 401 | NROL-55 (Multipayload mission)’, on board a Atlas V 401 space rocket.

The launch took place on Oct. 8, 2015, 12:49 p.m. from Space Launch Complex 3E.

For more information about the launch, click the button.

Launch to space Atlas V 401 | NROL-55 (Multipayload mission)
Atlas V 401 | NROL-55 (Multipayload mission)

Agency: N/A

Status: Launch Successful

Launch date: Oct. 8, 2015, 12:49 p.m. UTC

Rocket: Atlas V 401

Launch pad: Space Launch Complex 3E

Location: Vandenberg SFB, CA, USA

...

Latest news about this satellite

There are no fresh news available about this satellite. Check back as we update our databases every day.


Newsletter sign-up

Weekly statistics, charts and insights to help you stay on top of the space industry.